Location: Santa Clara
(37.3540°N, 121.9540°W)
Time: 00:43:42
(UTC-07:00)

BlueWalker 3 - Pass Details

Date: 30 May 2024
Orbit: 480 x 493 km, 53.2° (Epoch: 23 June)

Event Time Altitude Azimuth Distance (km) Brightness Sun altitude
Exits shadow 03:56:08 13° 148° (SSE) 1,456 4.1 -18.4°
Maximum altitude 03:57:21 15° 126° (SE) 1,362 4.2 -18.3°
Drops below altitude 10° 03:59:33 10° 89° (E) 1,651 5.1 -18.0°
Sets 04:02:25 0° 66° (ENE) 2,536 6.8 -17.6°
